Golden Princess — ZCDA9 — position and weather

sailwx.info

Track history (hours):
 
Tides and Currents Weather Stations Pressure Air Temp Water Temp Dewpoint Dewpoint Depression Visibility Wind Speed Wind Dir Waves Ship Positions

Golden Princess

Operator: Princess Cruises

Last reported at 2014-Oct-24 20:32 UTC. Time now 2014-Oct-24 20:41 UTC.
Position N 33°45' W 118°17'.

Length 289.6 m; beam 36 m; draft 8.5 m.

Type: Ship. MMSI: 310344000.

Date/timePositionNaut miles runAvg speedWind from/ knotsBaromVisibWave heightAir tempDewpointWater temp
2014-Oct-24 20:32N 33°45' W 118°17'0 0.0
2014-Oct-24 19:31N 33°45' W 118°17'0 0.0
2014-Oct-24 18:31N 33°45' W 118°17'0 0.0
2014-Oct-24 17:34N 33°45' W 118°17'0 0.0
2014-Oct-24 16:33N 33°45' W 118°17'0 0.0
2014-Oct-24 15:33N 33°45' W 118°17'0 0.0
2014-Oct-24 14:32N 33°45' W 118°17'0 0.0
2014-Oct-24 13:32N 33°45' W 118°17'5 4.7
2014-Oct-24 12:34N 33°41' W 118°13'1111.1
2014-Oct-24 11:34N 33°31' W 118°08'1111.1
2014-Oct-24 10:34N 33°21' W 118°03'1110.9
2014-Oct-24 09:34N 33°11' W 117°58'1111.0
2014-Oct-24 08:34N 33°01' W 117°52'1111.0
2014-Oct-24 07:34N 32°50' W 117°48'1111.1
2014-Oct-24 06:34N 32°39' W 117°45'1110.9
2014-Oct-24 05:33N 32°29' W 117°40'1514.6
2014-Oct-24 04:33N 32°16' W 117°33'1414.3
2014-Oct-24 03:33N 32°08' W 117°19'1312.7
2014-Oct-24 02:33N 32°01' W 117°06'1212.1
2014-Oct-24 01:33N 31°55' W 116°54'1211.6
2014-Oct-24 00:33N 31°50' W 116°42'5 0.5
2014-Oct-23 13:17N 31°47' W 116°46'811.0
2014-Oct-23 12:33N 31°43' W 116°55'1010.3
2014-Oct-23 11:33N 31°37' W 117°04'10 9.9
2014-Oct-23 10:33N 31°28' W 117°10'11 9.5
2014-Oct-23 09:26N 31°19' W 117°16'8 9.3
2014-Oct-23 08:33N 31°12' W 117°21'10 9.4
2014-Oct-23 07:32N 31°04' W 117°28'9 9.4
2014-Oct-23 06:32N 31°04' W 117°39'10 9.7
2014-Oct-23 05:32N 31°03' W 117°50'1110.9
2014-Oct-23 04:33N 31°03' W 118°03'1110.5
2014-Oct-23 03:33N 31°03' W 118°15'1010.0
2014-Oct-23 02:33N 31°03' W 118°27'1010.0
2014-Oct-23 01:33N 31°03' W 118°38'1010.1
2014-Oct-23 00:33N 31°03' W 118°50'1010.0
2014-Oct-22 23:33N 31°03' W 119°02'10 9.2
2014-Oct-22 22:29N 31°05' W 119°13'3310.3
2014-Oct-22 19:15N 31°39' W 119°13'910.4
2014-Oct-22 18:24N 31°48' W 119°14'8 9.3
2014-Oct-22 17:32N 31°53' W 119°08'9 9.2
2014-Oct-22 16:32N 31°53' W 118°57'11 9.6
2014-Oct-22 15:25N 31°53' W 118°44'8 9.2
2014-Oct-22 14:29N 31°54' W 118°34'20 9.2
2014-Oct-22 12:18N 31°53' W 118°10'10 9.2
2014-Oct-22 11:14N 31°53' W 117°59'7 9.5
2014-Oct-22 10:32N 31°55' W 117°51'9 8.8
2014-Oct-22 09:33N 32°02' W 117°46'10 9.7
2014-Oct-22 08:30N 32°13' W 117°46'10 9.7
2014-Oct-22 07:30N 32°22' W 117°46'9 9.7
2014-Oct-22 06:33N 32°32' W 117°46'9 9.4
2014-Oct-22 05:33N 32°41' W 117°46'1010.1
2014-Oct-22 04:33N 32°50' W 117°50'1010.1
2014-Oct-22 03:33N 33°00' W 117°54'1111.4
2014-Oct-22 02:33N 33°09' W 118°03'1312.7
2014-Oct-22 01:33N 33°18' W 118°13'6 5.0
2014-Oct-22 00:26N 33°21' W 118°19'0 0.0
2014-Oct-21 23:32N 33°21' W 118°19'0 0.0
2014-Oct-21 22:13N 33°21' W 118°19'0 0.0
2014-Oct-21 21:31N 33°21' W 118°19'0 0.0
2014-Oct-21 20:28N 33°21' W 118°19'0 0.0
2014-Oct-21 19:27N 33°21' W 118°19'0 0.0
2014-Oct-21 18:30N 33°21' W 118°19'0 0.0
2014-Oct-21 15:16N 33°21' W 118°19'2 1.0
2014-Oct-21 13:22N 33°21' W 118°17'18 9.4
2014-Oct-21 11:30N 33°08' W 118°03'1010.5
2014-Oct-21 10:33N 33°01' W 117°55'1110.8
2014-Oct-21 09:34N 32°51' W 117°51'1110.7
2014-Oct-21 08:34N 32°40' W 117°52'10 9.9
2014-Oct-21 07:33N 32°30' W 117°50'7 7.4
2014-Oct-21 06:33N 32°35' W 117°44'10 9.8
2014-Oct-21 05:33N 32°45' W 117°46'1110.7
2014-Oct-21 04:33N 32°55' W 117°48'1311.6
2014-Oct-21 03:24N 33°06' W 117°57'1313.7
2014-Oct-21 02:26N 33°18' W 118°05'1414.0
2014-Oct-21 01:28N 33°30' W 118°11'1112.7
2014-Oct-21 00:33N 33°41' W 118°15'4 3.8
2014-Oct-20 23:33N 33°45' W 118°17'0 0.0
2014-Oct-20 22:33N 33°45' W 118°17'0 0.0
2014-Oct-20 21:32N 33°45' W 118°17'0 0.0
2014-Oct-20 20:32N 33°45' W 118°17'0 0.0
2014-Oct-20 19:32N 33°45' W 118°17'0 0.0
2014-Oct-20 18:31N 33°45' W 118°17'0 0.0
2014-Oct-20 17:31N 33°45' W 118°17'0 0.0
2014-Oct-20 16:33N 33°45' W 118°17'0 0.0
2014-Oct-20 15:30N 33°45' W 118°17'0 0.0
2014-Oct-20 14:32N 33°45' W 118°17'1 0.7
2014-Oct-20 13:33N 33°44' W 118°17'10 9.6
2014-Oct-20 12:33N 33°36' W 118°10'1311.1
2014-Oct-20 11:20N 33°24' W 118°05'911.6
2014-Oct-20 10:33N 33°15' W 118°01'1111.0
2014-Oct-20 09:33N 33°05' W 117°55'1111.1
2014-Oct-20 08:33N 32°55' W 117°50'1111.5
2014-Oct-20 07:33N 32°44' W 117°47'1111.2
2014-Oct-20 06:33N 32°33' W 117°42'1414.1
2014-Oct-20 05:34N 32°22' W 117°33'1312.3
2014-Oct-20 04:31N 32°12' W 117°22'2510.9
2014-Oct-20 02:12N 31°57' W 116°58'91 3.9
2014-Oct-19 02:28N 31°06' W 118°27'64 5.3
2014-Oct-18 14:28N 32°05' W 118°01'910.2
2014-Oct-18 13:34N 32°14' W 117°57'1010.2
2014-Oct-18 12:33N 32°24' W 117°53'1010.0
2014-Oct-18 11:34N 32°33' W 117°49'10 9.8
2014-Oct-18 10:33N 32°43' W 117°48'1010.3
2014-Oct-18 09:33N 32°53' W 117°51'1313.1
2014-Oct-18 08:33N 33°05' W 117°57'1514.6
2014-Oct-18 07:33N 33°18' W 118°05'2014.5
2014-Oct-18 06:10N 33°37' W 118°14'610.4
2014-Oct-18 05:33N 33°43' W 118°16'2 2.1
2014-Oct-18 04:31N 33°45' W 118°17'0 0.0
2014-Oct-18 03:33N 33°45' W 118°17'0 0.0
2014-Oct-18 02:33N 33°45' W 118°17'0 0.0
2014-Oct-18 01:32N 33°45' W 118°17'0 0.0
2014-Oct-18 00:32N 33°45' W 118°17'0 0.0
2014-Oct-17 23:31N 33°45' W 118°17'0 0.0
2014-Oct-17 22:28N 33°45' W 118°17'0 0.0
2014-Oct-17 21:33N 33°45' W 118°17'0 0.0
2014-Oct-17 20:30N 33°45' W 118°17'0 0.0
2014-Oct-17 19:33N 33°45' W 118°17'0 0.0
2014-Oct-17 18:32N 33°45' W 118°17'0 0.0
2014-Oct-17 17:32N 33°45' W 118°17'0 0.0
2014-Oct-17 16:31N 33°45' W 118°17'0 0.0
2014-Oct-17 15:31N 33°45' W 118°17'0 0.0
2014-Oct-17 14:34N 33°45' W 118°17'1 0.8
2014-Oct-17 13:33N 33°44' W 118°17'10 9.8
2014-Oct-17 12:33N 33°36' W 118°10'8 8.2
2014-Oct-17 11:33N 33°28' W 118°06'9 9.1
2014-Oct-17 10:34N 33°20' W 118°03'9 9.4
2014-Oct-17 09:34N 33°11' W 117°58'9 9.3
2014-Oct-17 08:33N 33°03' W 117°54'9 9.5
2014-Oct-17 07:33N 32°54' W 117°49'9 9.4
2014-Oct-17 06:34N 32°44' W 117°50'9 9.2
2014-Oct-17 05:33N 32°35' W 117°51'1111.5
2014-Oct-17 04:33N 32°25' W 117°57'13 9.2
2014-Oct-17 03:11N 32°13' W 118°03'7 8.9
2014-Oct-17 02:21N 32°07' W 118°06'28 0.6
2014-Oct-15 04:28N 32°11' W 117°33'1313.5
2014-Oct-15 03:31N 32°23' W 117°28'1414.7
2014-Oct-15 02:34N 32°34' W 117°17'1010.0
2014-Oct-15 01:34N 32°43' W 117°12'2 1.6
2014-Oct-15 00:32N 32°43' W 117°10'0 0.0
2014-Oct-14 23:32N 32°43' W 117°10'0 0.0
2014-Oct-14 22:31N 32°43' W 117°10'0 0.0
2014-Oct-14 21:31N 32°43' W 117°10'0 0.0
2014-Oct-14 20:33N 32°43' W 117°10'  
Track history (hours):
 
Tides and Currents Weather Stations Pressure Air Temp Water Temp Dewpoint Dewpoint Depression Visibility Wind Speed Wind Dir Waves Ship Positions

Golden Princess

Operator: Princess Cruises

Last reported at 2014-Oct-24 20:32 UTC. Time now 2014-Oct-24 20:41 UTC.
Position N 33°45' W 118°17'.

Length 289.6 m; beam 36 m; draft 8.5 m.

Type: Ship. MMSI: 310344000.

Date/timePositionNaut miles runAvg speedWind from/ knotsBaromVisibWave heightAir tempDewpointWater temp
2014-Oct-24 20:32N 33°45' W 118°17'0 0.0
2014-Oct-24 19:31N 33°45' W 118°17'0 0.0
2014-Oct-24 18:31N 33°45' W 118°17'0 0.0
2014-Oct-24 17:34N 33°45' W 118°17'0 0.0
2014-Oct-24 16:33N 33°45' W 118°17'0 0.0
2014-Oct-24 15:33N 33°45' W 118°17'0 0.0
2014-Oct-24 14:32N 33°45' W 118°17'0 0.0
2014-Oct-24 13:32N 33°45' W 118°17'5 4.7
2014-Oct-24 12:34N 33°41' W 118°13'1111.1
2014-Oct-24 11:34N 33°31' W 118°08'1111.1
2014-Oct-24 10:34N 33°21' W 118°03'1110.9
2014-Oct-24 09:34N 33°11' W 117°58'1111.0
2014-Oct-24 08:34N 33°01' W 117°52'1111.0
2014-Oct-24 07:34N 32°50' W 117°48'1111.1
2014-Oct-24 06:34N 32°39' W 117°45'1110.9
2014-Oct-24 05:33N 32°29' W 117°40'1514.6
2014-Oct-24 04:33N 32°16' W 117°33'1414.3
2014-Oct-24 03:33N 32°08' W 117°19'1312.7
2014-Oct-24 02:33N 32°01' W 117°06'1212.1
2014-Oct-24 01:33N 31°55' W 116°54'1211.6
2014-Oct-24 00:33N 31°50' W 116°42'5 0.5
2014-Oct-23 13:17N 31°47' W 116°46'811.0
2014-Oct-23 12:33N 31°43' W 116°55'1010.3
2014-Oct-23 11:33N 31°37' W 117°04'10 9.9
2014-Oct-23 10:33N 31°28' W 117°10'11 9.5
2014-Oct-23 09:26N 31°19' W 117°16'8 9.3
2014-Oct-23 08:33N 31°12' W 117°21'10 9.4
2014-Oct-23 07:32N 31°04' W 117°28'9 9.4
2014-Oct-23 06:32N 31°04' W 117°39'10 9.7
2014-Oct-23 05:32N 31°03' W 117°50'1110.9
2014-Oct-23 04:33N 31°03' W 118°03'1110.5
2014-Oct-23 03:33N 31°03' W 118°15'1010.0
2014-Oct-23 02:33N 31°03' W 118°27'1010.0
2014-Oct-23 01:33N 31°03' W 118°38'1010.1
2014-Oct-23 00:33N 31°03' W 118°50'1010.0
2014-Oct-22 23:33N 31°03' W 119°02'10 9.2
2014-Oct-22 22:29N 31°05' W 119°13'3310.3
2014-Oct-22 19:15N 31°39' W 119°13'910.4
2014-Oct-22 18:24N 31°48' W 119°14'8 9.3
2014-Oct-22 17:32N 31°53' W 119°08'9 9.2
2014-Oct-22 16:32N 31°53' W 118°57'11 9.6
2014-Oct-22 15:25N 31°53' W 118°44'8 9.2
2014-Oct-22 14:29N 31°54' W 118°34'20 9.2
2014-Oct-22 12:18N 31°53' W 118°10'10 9.2
2014-Oct-22 11:14N 31°53' W 117°59'7 9.5
2014-Oct-22 10:32N 31°55' W 117°51'9 8.8
2014-Oct-22 09:33N 32°02' W 117°46'10 9.7
2014-Oct-22 08:30N 32°13' W 117°46'10 9.7
2014-Oct-22 07:30N 32°22' W 117°46'9 9.7
2014-Oct-22 06:33N 32°32' W 117°46'9 9.4
2014-Oct-22 05:33N 32°41' W 117°46'1010.1
2014-Oct-22 04:33N 32°50' W 117°50'1010.1
2014-Oct-22 03:33N 33°00' W 117°54'1111.4
2014-Oct-22 02:33N 33°09' W 118°03'1312.7
2014-Oct-22 01:33N 33°18' W 118°13'6 5.0
2014-Oct-22 00:26N 33°21' W 118°19'0 0.0
2014-Oct-21 23:32N 33°21' W 118°19'0 0.0
2014-Oct-21 22:13N 33°21' W 118°19'0 0.0
2014-Oct-21 21:31N 33°21' W 118°19'0 0.0
2014-Oct-21 20:28N 33°21' W 118°19'0 0.0
2014-Oct-21 19:27N 33°21' W 118°19'0 0.0
2014-Oct-21 18:30N 33°21' W 118°19'0 0.0
2014-Oct-21 15:16N 33°21' W 118°19'2 1.0
2014-Oct-21 13:22N 33°21' W 118°17'18 9.4
2014-Oct-21 11:30N 33°08' W 118°03'1010.5
2014-Oct-21 10:33N 33°01' W 117°55'1110.8
2014-Oct-21 09:34N 32°51' W 117°51'1110.7
2014-Oct-21 08:34N 32°40' W 117°52'10 9.9
2014-Oct-21 07:33N 32°30' W 117°50'7 7.4
2014-Oct-21 06:33N 32°35' W 117°44'10 9.8
2014-Oct-21 05:33N 32°45' W 117°46'1110.7
2014-Oct-21 04:33N 32°55' W 117°48'1311.6
2014-Oct-21 03:24N 33°06' W 117°57'1313.7
2014-Oct-21 02:26N 33°18' W 118°05'1414.0
2014-Oct-21 01:28N 33°30' W 118°11'1112.7
2014-Oct-21 00:33N 33°41' W 118°15'4 3.8
2014-Oct-20 23:33N 33°45' W 118°17'0 0.0
2014-Oct-20 22:33N 33°45' W 118°17'0 0.0
2014-Oct-20 21:32N 33°45' W 118°17'0 0.0
2014-Oct-20 20:32N 33°45' W 118°17'0 0.0
2014-Oct-20 19:32N 33°45' W 118°17'0 0.0
2014-Oct-20 18:31N 33°45' W 118°17'0 0.0
2014-Oct-20 17:31N 33°45' W 118°17'0 0.0
2014-Oct-20 16:33N 33°45' W 118°17'0 0.0
2014-Oct-20 15:30N 33°45' W 118°17'0 0.0
2014-Oct-20 14:32N 33°45' W 118°17'1 0.7
2014-Oct-20 13:33N 33°44' W 118°17'10 9.6
2014-Oct-20 12:33N 33°36' W 118°10'1311.1
2014-Oct-20 11:20N 33°24' W 118°05'911.6
2014-Oct-20 10:33N 33°15' W 118°01'1111.0
2014-Oct-20 09:33N 33°05' W 117°55'1111.1
2014-Oct-20 08:33N 32°55' W 117°50'1111.5
2014-Oct-20 07:33N 32°44' W 117°47'1111.2
2014-Oct-20 06:33N 32°33' W 117°42'1414.1
2014-Oct-20 05:34N 32°22' W 117°33'1312.3
2014-Oct-20 04:31N 32°12' W 117°22'2510.9
2014-Oct-20 02:12N 31°57' W 116°58'91 3.9
2014-Oct-19 02:28N 31°06' W 118°27'64 5.3
2014-Oct-18 14:28N 32°05' W 118°01'910.2
2014-Oct-18 13:34N 32°14' W 117°57'1010.2
2014-Oct-18 12:33N 32°24' W 117°53'1010.0
2014-Oct-18 11:34N 32°33' W 117°49'10 9.8
2014-Oct-18 10:33N 32°43' W 117°48'1010.3
2014-Oct-18 09:33N 32°53' W 117°51'1313.1
2014-Oct-18 08:33N 33°05' W 117°57'1514.6
2014-Oct-18 07:33N 33°18' W 118°05'2014.5
2014-Oct-18 06:10N 33°37' W 118°14'610.4
2014-Oct-18 05:33N 33°43' W 118°16'2 2.1
2014-Oct-18 04:31N 33°45' W 118°17'0 0.0
2014-Oct-18 03:33N 33°45' W 118°17'0 0.0
2014-Oct-18 02:33N 33°45' W 118°17'0 0.0
2014-Oct-18 01:32N 33°45' W 118°17'0 0.0
2014-Oct-18 00:32N 33°45' W 118°17'0 0.0
2014-Oct-17 23:31N 33°45' W 118°17'0 0.0
2014-Oct-17 22:28N 33°45' W 118°17'0 0.0
2014-Oct-17 21:33N 33°45' W 118°17'0 0.0
2014-Oct-17 20:30N 33°45' W 118°17'0 0.0
2014-Oct-17 19:33N 33°45' W 118°17'0 0.0
2014-Oct-17 18:32N 33°45' W 118°17'0 0.0
2014-Oct-17 17:32N 33°45' W 118°17'0 0.0
2014-Oct-17 16:31N 33°45' W 118°17'0 0.0
2014-Oct-17 15:31N 33°45' W 118°17'0 0.0
2014-Oct-17 14:34N 33°45' W 118°17'1 0.8
2014-Oct-17 13:33N 33°44' W 118°17'10 9.8
2014-Oct-17 12:33N 33°36' W 118°10'8 8.2
2014-Oct-17 11:33N 33°28' W 118°06'9 9.1
2014-Oct-17 10:34N 33°20' W 118°03'9 9.4
2014-Oct-17 09:34N 33°11' W 117°58'9 9.3
2014-Oct-17 08:33N 33°03' W 117°54'9 9.5
2014-Oct-17 07:33N 32°54' W 117°49'9 9.4
2014-Oct-17 06:34N 32°44' W 117°50'9 9.2
2014-Oct-17 05:33N 32°35' W 117°51'1111.5
2014-Oct-17 04:33N 32°25' W 117°57'13 9.2
2014-Oct-17 03:11N 32°13' W 118°03'7 8.9
2014-Oct-17 02:21N 32°07' W 118°06'28 0.6
2014-Oct-15 04:28N 32°11' W 117°33'1313.5
2014-Oct-15 03:31N 32°23' W 117°28'1414.7
2014-Oct-15 02:34N 32°34' W 117°17'1010.0
2014-Oct-15 01:34N 32°43' W 117°12'2 1.6
2014-Oct-15 00:32N 32°43' W 117°10'0 0.0
2014-Oct-14 23:32N 32°43' W 117°10'0 0.0
2014-Oct-14 22:31N 32°43' W 117°10'0 0.0
2014-Oct-14 21:31N 32°43' W 117°10'0 0.0
2014-Oct-14 20:33N 32°43' W 117°10'  

Dump ship's entire track history